Powrót do katalogu

STARLINK-35851

AktywnyŁącznośćVLEO
NORAD 66356·PAYLOAD·🇺🇸 United States

Wystrzelony Nov 6, 2025 z Vandenberg Space Force Base

Loading…

Następne Przeloty (najbliższe 24 godziny)

TLE

ŚwieżeSource: CelesTrak SupGP

Epoka: Sep 15, 2026, 02:28 UTC

1 66356C 25254J   26258.10326389 -.00022810  00000+0 -67397-3 0  2586
2 66356  53.1574  70.6409 0001061  81.7210 292.5967 15.34399772    17

Śledź STARLINK-35851 w czasie rzeczywistym z AllMySat

Download on the App Store